This demonstration page uses our WeatherBlox Daily Observations layout. Learn more.

Left ArrowRight Arrow

44.8408, -93.29828

Hourly Observations for May 25, 2016

Temp ( °F °C ) Dew Point ( °F °C ) Humidity (%) Winds ( mph kmh ) Pressure ( in mb ) Visibility ( mi km ) Precip ( " mm )
12:53 am 00:53 Partly Cloudy 70 21.1 58 14.4 66 66 ESE 9 15 29.89 1012 10 16 0.00 0.00
1:53 am 01:53 Mostly Clear 68 20 58 14.4 70 70 ESE 7 11 29.91 1013 10 16 0.00 0.00
2:53 am 02:53 Partly Cloudy 68 20 57 13.9 68 68 E 7 11 29.91 1013 10 16 0.00 0.00
3:53 am 03:53 Partly Cloudy 67 19.4 56 13.3 68 68 E 6 9 29.89 1012 10 16 0.00 0.00
4:53 am 04:53 Mostly Cloudy 67 19.4 57 13.9 71 71 E 9 15 29.85 1011 10 16 0.00 0.00
5:53 am 05:53 Mostly Cloudy 68 20 57 13.9 68 68 E 13 20 29.86 1011 10 16 0.00 0.00
6:53 am 06:53 Cloudy 68 20 57 13.9 68 68 ESE 10 17 29.88 1012 10 16 0.00 0.00
7:53 am 07:53 Cloudy 70 21.1 58 14.4 66 66 ESE 15 24 29.88 1012 10 16 0.00 0.00
8:53 am 08:53 Cloudy 71 21.7 59 15 66 66 SE 10 17 29.88 1012 10 16 0.00 0.00
9:15 am 09:15 Cloudy with Nearby Thunderstorms 72 22.2 60 15.6 66 66 SSE 13 20 29.85 1011 10 16 0.00 0.00
9:21 am 09:21 Cloudy with Thunderstorms 72 22.2 60 15.6 66 66 SSE 14 22 29.88 1012 10 16 0.00 0.00
9:53 am 09:53 Cloudy with Thunderstorms 67 19.4 63 17.2 87 87 SSE 8 13 29.89 1012 10 16 0.25 6.35
10:20 am 10:20 Cloudy with Nearby Thunderstorms 68 20 63 17 83 83 SE 8 13 29.91 1013 7 11 0.00 0.00
10:46 am 10:46 Cloudy with Light Rain 70 21 63 17 78 78 S 3 6 29.91 1013 8 13 0.00 0.00
10:53 am 10:53 Cloudy with Light Rain 69 20.6 64 17.8 84 84 ESE 10 17 29.89 1012 9 14 0.06 1.52
11:09 am 11:09 Cloudy with Thunderstorms 68 20 64 17.8 87 87 E 10 17 29.88 1012 8 13 0.02 0.51
11:25 am 11:25 Cloudy 69 20.6 63 17.2 81 81 E 12 19 29.88 1012 10 16 0.02 0.51
11:53 am 11:53 Cloudy with Light Rain 68 20 62 16.7 81 81 E 13 20 29.86 1011 10 16 0.02 0.51
12:53 pm 12:53 Cloudy 71 21.7 64 17.8 79 79 E 10 17 29.83 1010 10 16 0.00 0.03
1:53 pm 13:53 Cloudy with Light Rain 72 22.2 66 18.9 82 82 E 8 13 29.83 1010 10 16 0.00 0.03
2:09 pm 14:09 Cloudy 72 22.2 65 18.3 79 79 ESE 15 24 29.80 1009 10 16 0.00 0.03
2:20 pm 14:20 Cloudy 73 23 66 19 78 78 ESE 13 20 29.80 1009 10 16 0.00 0.00
2:53 pm 14:53 Cloudy 74 23.3 65 18.3 74 74 ESE 12 19 29.82 1010 10 16 0.00 0.03
3:08 pm 15:08 Cloudy 73 23 64 18 74 74 ESE 13 20 29.80 1009 10 16 0.00 0.00
3:53 pm 15:53 Cloudy 72 22.2 63 17.2 73 73 SE 13 20 29.80 1009 10 16 0.00 0.00
4:53 pm 16:53 Mostly Cloudy 73 22.8 63 17.2 71 71 SE 7 11 29.79 1009 10 16 0.00 0.03
5:53 pm 17:53 Mostly Cloudy 74 23.3 63 17.2 69 69 VRB 5 7 29.78 1008 10 16 0.00 0.00
6:53 pm 18:53 Mostly Sunny 75 23.9 63 17.2 66 66 E 5 7 29.78 1008 10 16 0.00 0.00
7:53 pm 19:53 Mostly Sunny 74 23.3 62 16.7 67 67 ENE 6 9 29.79 1009 10 16 0.00 0.00
8:53 pm 20:53 Mostly Clear 72 22.2 62 16.7 71 71 E 10 17 29.79 1009 10 16 0.00 0.00
9:53 pm 21:53 Mostly Clear 70 21.1 62 16.7 76 76 E 10 17 29.80 1009 10 16 0.00 0.00
10:53 pm 22:53 Mostly Clear 68 20 62 16.7 81 81 E 7 11 29.82 1010 10 16 0.00 0.00
11:53 pm 23:53 Mostly Clear 67 19.4 62 16.7 84 84 ESE 10 17 29.81 1010 10 16 0.00 0.00

Powered by AerisWeather